• Join FlightAware (Why Join?)
  • Login
  • US Flag GB Flag 
02:21 EST


 

Airport Tracker/Info


-or-


 

Live Flight TrackerFlight Track Log ✈ SWA157 ✈ 14-Jun-2013 ✈ KSNA - KSJC

Flight Track Log - Related Links

Times and Time Zones

All times are in EDT time to prevent confusion due to time zone crossing. See the SWA157 flight status page for this flight to view local times or setup timezone preferences in your user account.

Time Position Orientation Groundspeed Altitude Reporting Facility
EDT Latitude Longitude Course Direction KTS MPH feet Rate Location/Type
16:51 33.5986 -117.8994 191° South 148 170 3,900  Level Los Angeles Center
16:52 33.5458 -117.9269 203° Southwest 199 229 7,000 2,700 Climbing Los Angeles Center
16:53 33.4789 -117.9800 213° Southwest 266 306 9,600 3,060 Climbing Los Angeles Center
16:54 33.4425 -118.0794 246° West 321 369 13,400 3,600 Climbing Los Angeles Center
16:55 33.4250 -118.1906 259° West 334 384 17,000 3,240 Climbing Los Angeles Center
16:56 33.4269 -118.3161 271° West 367 422 20,100 2,820 Climbing Los Angeles Center
16:57 33.4753 -118.4303 297° West 393 452 22,900 2,760 Climbing Los Angeles Center
16:58 33.5719 -118.5517 314° West 412 474 25,900 2,580 Climbing Los Angeles Center
16:59 33.6533 -118.6575 313° West 423 487 28,300 2,100 Climbing Los Angeles Center
17:00 33.7372 -118.7647 313° West 436 502 30,300 1,980 Climbing Los Angeles Center
17:01 33.8222 -118.8744 313° West 445 512 32,500 2,220 Climbing Los Angeles Center
17:02 33.9061 -118.9833 313° West 440 506 34,900 2,040 Climbing Los Angeles Center
17:03 33.9875 -119.0894 313° West 434 499 36,800 1,560 Climbing Los Angeles Center
17:04 34.0692 -119.1950 313° West 430 495 38,200 1,500 Climbing Los Angeles Center
17:05 34.1664 -119.3231 313° West 431 496 40,000 840 Climbing Los Angeles Center
17:06 34.2475 -119.4289 313° West 430 495 40,000  Level Los Angeles Center
17:07 34.3278 -119.5342 313° West 426 490 40,000  Level Los Angeles Center
17:08 34.4078 -119.6408 312° West 427 491 40,000  Level Los Angeles Center
17:09 34.4886 -119.7447 313° West 425 489 40,000  Level Los Angeles Center
17:10 34.6025 -119.8511 322° Northwest 433 498 40,000  Level Los Angeles Center
17:11 34.6958 -119.9250 327° Northwest 440 506 40,000  Level Los Angeles Center
17:12 34.7950 -120.0075 326° Northwest 433 498 40,000  Level Los Angeles Center
17:13 34.9106 -120.1025 326° Northwest 436 502 40,000  Level Los Angeles Center
17:15 35.0108 -120.1853 326° Northwest 440 506 40,000  Level Los Angeles Center
17:16 35.1094 -120.2683 325° Northwest 437 503 40,000  Level Los Angeles Center
17:17 35.2089 -120.3514 326° Northwest 440 506 40,000  Level Los Angeles Center
17:18 35.3064 -120.4347 325° Northwest 436 502 40,000  Level Los Angeles Center
17:19 35.4253 -120.5369 325° Northwest 437 503 40,000 -300 Level Los Angeles Center
17:20 35.5242 -120.6200 326° Northwest 432 497 39,400 -1,500 Descending Los Angeles Center
17:21 35.6206 -120.7017 325° Northwest 424 488 37,000 -2,460 Descending Los Angeles Center
17:21 35.6550 -120.7308 325° Northwest 421 484 36,100 -2,400 Descending Oakland Center
17:22 35.7522 -120.8139 325° Northwest 421 484 33,800 -2,100 Descending Oakland Center
17:23 35.8472 -120.8953 325° Northwest 413 475 31,800 -1,980 Descending Oakland Center
17:24 35.9406 -120.9747 325° Northwest 408 470 29,800 -1,980 Descending Oakland Center
17:25 36.0319 -121.0544 325° Northwest 396 456 27,800 -1,980 Descending Oakland Center
17:26 36.1217 -121.1303 326° Northwest 390 449 25,800 -2,100 Descending Oakland Center
17:27 36.2233 -121.2192 325° Northwest 372 428 23,500 -2,040 Descending Oakland Center
17:28 36.3053 -121.2911 325° Northwest 357 411 21,700 -1,800 Descending Oakland Center
17:29 36.3850 -121.3592 326° Northwest 347 399 19,900 -1,800 Descending Oakland Center
17:30 36.4633 -121.4278 325° Northwest 340 391 18,100 -1,800 Descending Oakland Center
17:31 36.5431 -121.4956 326° Northwest 345 397 16,300 -1,800 Descending Oakland Center
17:32 36.6181 -121.5653 323° Northwest 336 387 14,500 -1,800 Descending Oakland Center
17:33 36.7017 -121.5969 343° North 312 359 12,700 -1,800 Descending Oakland Center
17:34 36.7933 -121.5858 North 324 373 10,900 -1,500 Descending Oakland Center
17:35 36.8900 -121.5792 North 305 351 9,600 -1,200 Descending Oakland Center
17:36 36.9697 -121.5731 North 293 337 8,500 -840 Descending Oakland Center
17:37 37.0422 -121.5697 North 273 314 8,000 -720 Descending Oakland Center
17:38 37.0903 -121.6317 314° West 224 258 7,100 -600 Descending Oakland Center
17:39 37.1347 -121.6775 321° Northwest 209 241 6,800 -660 Descending Oakland Center
17:41 37.1753 -121.7231 318° Northwest 196 226 5,800 -1,080 Descending Oakland Center
17:42 37.2153 -121.7731 315° West 191 220 4,600 -1,200 Descending Oakland Center
17:43 37.2519 -121.8133 319° Northwest 183 211 3,400 -1,200 Descending Oakland Center
17:44 37.2900 -121.8494 323° Northwest 177 204 2,200 -1,140 Descending Oakland Center
17:45 37.3233 -121.8842 320° Northwest 167 192 1,100 -960 Descending Oakland Center
17:46 37.3472 -121.9106 319° Northwest 136 157 300 -780 Descending Oakland Center
17:48 37.3500 -121.9167 North  Level FlightAware Approximate